Weather History for Covington, KY

Change the Weather History Date:

Tuesday, July 22, 2014

  Actual Average Record
Temperature  
Mean Temperature 26 °C 24 °C  
Max Temperature 33 °C 30 °C 42 °C (1934)
Min Temperature 19 °C 19 °C 10 °C (1947)
Degree Days  
Heating Degree Days 0 0  
Month to date heating degree days 2 0  
Since 1 June heating degree days 5 15  
Since 1 July heating degree days 2 0  
Cooling Degree Days 14 11  
Month to date cooling degree days 167 240  
Year to date cooling degree days 575 560  
Since 1 June cooling degree days 441 466  
Growing Degree Days 28 (Base 50)    
Moisture  
Dew Point 19 °C    
Average Humidity 67    
Maximum Humidity 90    
Minimum Humidity 44    
Precipitation  
Precipitation 0.00 mm 3.05 mm 5.49 mm (1906)
Month to date precipitation 1.66 2.64  
Year to date precipitation 25.35 25.26  
Snow  
Snow 0.00 cm 0.00 cm 0.00 cm ()
Month to date snowfall 0.0 0.0  
Since 1 June snowfall 0.0 0.0  
Since 1 July snowfall 0.0 0.0  
Snow Depth 0.00 cm    
Sea Level Pressure  
Sea Level Pressure 1018 hPa    
Wind  
Wind Speed 7 km/h (SW)    
Max Wind Speed 23 km/h    
Max Gust Speed 27 km/h    
Visibility 14 kilometers    
Events      
T = Trace of Precipitation, MM = Missing Value Source: NWS Daily Summary

Daily Weather History Graph

Daily Weather History Graph

Search for Another Location

Airport:

Trip Planner

Search our weather history database for the weather conditions in past years. The results will help you decide how hot, cold, wet, or windy it might be!

Date:

Astronomy

Jul. 22, 2014 Rise Set
Actual Time 6:30 AM EDT 8:59 PM EDT
Civil Twilight 6:00 AM EDT 9:29 PM EDT
Nautical Twilight 5:22 AM EDT 10:07 PM EDT
Astronomical Twilight 4:39 AM EDT 10:49 PM EDT
Moon 3:02 AM EDT (7/22) 5:36 PM EDT (7/22)
Length of Visible Light 15h 29m
Length of Day
14h 28m
Waning Crescent, 16% of the Moon is Illuminated
Jul 22
Waning Crescent
Jul 26
New
Aug 3
First Quarter
Aug 10
Full
Aug 17
Last Quarter

Hourly Weather History & Observations

Time (EDT) Temp. Heat Index Dew Point Humidity Pressure Visibility Wind Dir Wind Speed Gust Speed Precip Events Conditions
12:52 AM 24.4 °C - 18.9 °C 71% 1018.3 hPa 16.1 km East 5.6 km/h / 1.5 m/s - N/A   Clear
1:52 AM 23.9 °C - 18.9 °C 73% 1018.4 hPa 14.5 km Calm Calm - N/A   Clear
2:52 AM 23.3 °C - 18.9 °C 76% 1018.0 hPa 14.5 km East 5.6 km/h / 1.5 m/s - N/A   Clear
3:52 AM 21.7 °C - 18.3 °C 81% 1017.9 hPa 12.9 km East 7.4 km/h / 2.1 m/s - N/A   Clear
4:52 AM 22.8 °C - 19.4 °C 81% 1017.9 hPa 12.9 km ENE 5.6 km/h / 1.5 m/s - N/A   Clear
5:52 AM 23.3 °C - 19.4 °C 79% 1018.4 hPa 12.9 km NNE 7.4 km/h / 2.1 m/s - N/A   Clear
6:52 AM 21.1 °C - 18.9 °C 87% 1019.0 hPa 4.8 km Calm Calm - N/A   Scattered Clouds
7:52 AM 22.8 °C - 20.6 °C 87% 1019.3 hPa 8.0 km Calm Calm - N/A   Partly Cloudy
8:52 AM 25.6 °C - 21.1 °C 76% 1019.4 hPa 11.3 km Calm Calm - N/A   Scattered Clouds
9:52 AM 27.0 °C 29.2 °C 22.0 °C 74% 1020.2 hPa 11.3 km South 9.3 km/h / 2.6 m/s - N/A   Partly Cloudy
10:52 AM 28.9 °C 31.3 °C 21.1 °C 63% 1018.8 hPa 16.1 km SSW 9.3 km/h / 2.6 m/s - N/A   Partly Cloudy
11:52 AM 29.4 °C 31.2 °C 20.0 °C 57% 1018.5 hPa 16.1 km South 7.4 km/h / 2.1 m/s - N/A   Scattered Clouds
12:52 PM 30.6 °C 31.6 °C 18.3 °C 48% 1018.0 hPa 16.1 km SW 11.1 km/h / 3.1 m/s - N/A   Scattered Clouds
1:52 PM 31.7 °C 32.8 °C 18.3 °C 45% 1017.7 hPa 16.1 km SW 13.0 km/h / 3.6 m/s - N/A   Partly Cloudy
2:52 PM 31.7 °C 32.8 °C 18.3 °C 45% 1017.4 hPa 16.1 km WSW 14.8 km/h / 4.1 m/s - N/A   Partly Cloudy
3:52 PM 32.0 °C 33.5 °C 19.0 °C 46% 1018.2 hPa 16.1 km WSW 16.7 km/h / 4.6 m/s - N/A   Partly Cloudy
4:52 PM 32.2 °C 33.1 °C 18.3 °C 43% 1016.5 hPa 16.1 km West 14.8 km/h / 4.1 m/s 25.9 km/h / 7.2 m/s N/A   Partly Cloudy
5:52 PM 31.7 °C 33.0 °C 18.9 °C 46% 1016.2 hPa 16.1 km West 13.0 km/h / 3.6 m/s - N/A   Partly Cloudy
6:52 PM 31.7 °C 32.8 °C 18.3 °C 45% 1016.2 hPa 16.1 km West 16.7 km/h / 4.6 m/s - N/A   Clear
7:52 PM 30.0 °C 31.5 °C 19.4 °C 53% 1016.1 hPa 16.1 km West 9.3 km/h / 2.6 m/s - N/A   Clear
8:52 PM 27.8 °C 29.2 °C 19.4 °C 60% 1016.2 hPa 16.1 km West 5.6 km/h / 1.5 m/s - N/A   Clear
9:52 PM 25.6 °C - 20.0 °C 71% 1016.3 hPa 16.1 km Calm Calm - N/A   Clear
10:52 PM 23.3 °C - 20.0 °C 82% 1016.7 hPa 16.1 km Calm Calm - N/A   Clear
11:52 PM 22.8 °C - 20.0 °C 84% 1016.4 hPa 16.1 km SSW 5.6 km/h / 1.5 m/s - N/A   Clear